THOR ABLESTAR DEB, 552

Orbit data source: Space-Track

THOR ABLESTAR DEB, 552 is space debris in LEO originally from a launch on Thu, 29 Jun 1961 UTC launched from the Air Force Eastern Test Range (AFETR). Debris objects in space refer to the collection of defunct objects orbiting the Earth. Examples of debris include non-operational satellites, rocket bodies, and fragments generated from explosions, collisions, or faulty payload assembly.

Loading next visibility...
THOR ABLESTAR DEB details
Identifier
552, 1961-015GM
Orbit
LEO
Last TLE update18 hours ago
Origin
Flag of USUSAF SSD (US)
ManufacturerUnknown
MissionSpacecraft
Bus & MotorUnknown
MassUnknown
Launch date (UTC)
1961-06-29 (64 years ago)
Launch vehicleUnknown
Launch site
Air Force Eastern Test Range (AFETR)
Object type
Payload
Rocket body
Debris
Shape & HBRUnknown
Radar Cross SectionSmall (<0.1 m²)

Expand to show TLE details & history

TLE from 18 hours ago
0 THOR ABLESTAR DEB
1 00552U 61015GM  25014.69069986  .00002603  00000-0  18194-2 0  9996
2 00552  67.7354 205.1183 0101048  97.8129 263.4447 13.97438300184197
Epoch: 2025-01-14T16:34Z
Definitive object data (Epoch: 2025-01-14T16:34:36.467Z)
Latitude
Longitude-157.92741°
Altitude913.965 km
Speed7.391 km/s
True Right ascension13h 40m 28s
True Declination0° 00' 00"
Sunlit
Object was in daylight at TLE epoch
Visualization TLE readout
Latitude67.83897°
Longitude-70.64765°
Altitude840.677 km
Speed7.476 km/s
Apparent Right ascension21h 40m 27s
Apparent Declination20° 24' 18"
Sunlit
Object is in daylight
Visualization observer readout
Local Sidereal Time10:50:34
Azimuth18.558° NNE
Elevation-27.5°
Doppler factor1
Orbital elements
Apogee altitude974.516 km
Perigee altitude827.408 km
Semi-major axis7,279.099 km
Eccentricity0.0101048
Inclination67.7354°
RAAN205.1183°
Arg. of periapsis97.8129°
True anomaly262.29608°
Mean anomaly263.4447°
Eccentric anomaly262.87021°
Mean motion3.49484 °/min
BSTAR0.0018194
Orbital period103.01 mins
Loading maneuver chart data...

THOR ABLESTAR DEB Visibility forecast

Observer location: undefined°, undefined

Span
Click to sort rows by Start time (UTC) header in descending order
Start Az.
Max El. time (UTC)
Max El. Az.
Max El.
End time (UTC)
End Az.
10 mins2025-01-15 13:17:35.300Z174.051° S2025-01-15 13:22:35.300Z114.186° SE30.62°2025-01-15 13:27:35.300Z46.059° ENE
8 mins2025-01-15 15:04:35.300Z249.543° W2025-01-15 15:08:35.300Z307.34° NW28.857°2025-01-15 15:12:35.300Z4.643° NNE
8 mins2025-01-15 22:19:35.300Z359.312° N2025-01-15 22:23:35.300Z58.94° ENE26.636°2025-01-15 22:27:35.300Z109.721° ESE
8 mins2025-01-16 00:05:35.300Z308.443° NW2025-01-16 00:09:35.300Z236.832° WSW32.275°2025-01-16 00:13:35.300Z185.621° SSW
|